www.pogodaiklimat.ru
ПОГОДА в Лангкави

Архив погоды в Лангкави (Малайзия)

Время
(UTC), дата
16 22.09
17 22.09
18 22.09
19 22.09
20 22.09
21 22.09
22 22.09
23 22.09
00 23.09
01 23.09
02 23.09
03 23.09
04 23.09
05 23.09
06 23.09
07 23.09
08 23.09
09 23.09
10 23.09
11 23.09
12 23.09
13 23.09
14 23.09
15 23.09
16 23.09
17 23.09
18 23.09
19 23.09
20 23.09
21 23.09
22 23.09
23 23.09
00 24.09
01 24.09
02 24.09
03 24.09
04 24.09
05 24.09
06 24.09
07 24.09
08 24.09
09 24.09
10 24.09
11 24.09
12 24.09
13 24.09
14 24.09
15 24.09
16 24.09
17 24.09
18 24.09
19 24.09
20 24.09
21 24.09
22 24.09
23 24.09
00 25.09
01 25.09
02 25.09
03 25.09
04 25.09
05 25.09
06 25.09
07 25.09
08 25.09
09 25.09
10 25.09
11 25.09
12 25.09
13 25.09
14 25.09
15 25.09
16 25.09
17 25.09
18 25.09
19 25.09
20 25.09
21 25.09
22 25.09
23 25.09
00 26.09
01 26.09
02 26.09
03 26.09
04 26.09
05 26.09
06 26.09
07 26.09
08 26.09
09 26.09
10 26.09
11 26.09
12 26.09
13 26.09
14 26.09
15 26.09
16 26.09
17 26.09
18 26.09
19 26.09
20 26.09
21 26.09
22 26.09
23 26.09
00 27.09
01 27.09
02 27.09
03 27.09
04 27.09
05 27.09
06 27.09
07 27.09
08 27.09
09 27.09
10 27.09
11 27.09
12 27.09
13 27.09
14 27.09
15 27.09
16 27.09
17 27.09
18 27.09
19 27.09
20 27.09
21 27.09
22 27.09
23 27.09
00 28.09
01 28.09
02 28.09
03 28.09
04 28.09
05 28.09
06 28.09
07 28.09
08 28.09
09 28.09
10 28.09
11 28.09
12 28.09
13 28.09
14 28.09
15 28.09
16 28.09
17 28.09
18 28.09
19 28.09
20 28.09
21 28.09
22 28.09
23 28.09
00 29.09
01 29.09
02 29.09
03 29.09
04 29.09
05 29.09
06 29.09
07 29.09
08 29.09
09 29.09
10 29.09
11 29.09
12 29.09
13 29.09
14 29.09
15 29.09
16 29.09
17 29.09
Ветер
(напр.,м/с)
Видим. Явления Облачность Т
(С)
Тd
(С)
f
(%)
Тe
(С)
Тes
(С)
Комфортность P
(гПа)
Po
(гПа)
Тmin
(С)
Tmax
(С)
R
(мм)
R24
(мм)
S
(см)
нст 1 10 км 2/2 510 м +26.0 +24.0 89 +36 +36 очень
душно
1011.0 1010.5
нст 1 9000 м слаб. дождь 5/5 300 м
[Ns]
+26.0 +25.0 94 +37 +37 очень
душно
1010.0 1009.5
ЮВ 2 9000 м слаб. дождь 9/5 300 м
[Sc Ac lent Cs]
+25.3 +24.1 94 +34 +34 очень
душно
1010.3 1009.3 4
В 2 10 км 2/2 300 м +26.0 +24.0 89 +36 +36 очень
душно
1009.0 1008.5
нст 1 10 км 2/2 510 м +25.0 +24.0 94 +34 +34 очень
душно
1008.0 1007.5
нст 2 9000 м слаб. дождь 5/5 300 м
[Ns]
+25.0 +24.0 94 +34 +34 очень
душно
1008.0 1007.5
нст 2 9000 м гроза, ливневой дождь 5/5 300 м
[Cb]
+25.0 +24.0 94 +34 +34 очень
душно
1009.0 1008.5
нст 2 7000 м дождь 5/5 150 м
[Ns]
+24.0 +23.0 94 +32 +32 очень
душно
1009.0 1008.5
СВ 2 11 км слаб. дождь {гроза} 9/5 300 м
[Sc Ac lent Cs]
+24.4 +23.3 94 +33 +33 очень
душно
1010.2 1009.2 +23.8 28 28.0
ЮВ 2 10 км 2/2 300 м +25.0 +24.0 94 +34 +37 очень
душно
1010.0 1009.5
Ю 3 10 км 5/5 300 м +26.0 +25.0 94 +37 +41 очень
душно
1012.0 1011.5
нст 1 10 км слаб. ливневой дождь 5/5 300 м
[Cb]
+26.0 +25.0 94 +37 +46 очень
душно
1012.0 1011.5
нст 1 10 км 2/2 300 м +27.0 +25.0 89 +39 +57 опасность
солнечного
удара
1011.0 1010.5
нст 3 9000 м слаб. ливневой дождь 5/5 600 м
[Cb]
+26.0 +24.0 89 +36 +45 очень
душно
1011.0 1010.5
СЗ 1 9000 м слаб. дождь {ливн. дождь} 9/5 300 м
[Sc Ac lent Cs]
+27.3 +24.8 86 +39 +46 очень
душно
1009.8 1008.8 8
нст 2 9000 м слаб. дождь 5/5 300 м
[Ns]
+26.0 +23.0 84 +35 +44 очень
душно
1008.0 1007.5
нст 1 7000 м дождь 5/5 240 м
[Ns]
+25.0 +24.0 94 +34 +42 очень
душно
1008.0 1007.5
нст 3 6000 м дождь 5/5 240 м
[Ns]
+25.0 +23.0 89 +33 +36 очень
душно
1008.0 1007.5
нст 1 10 км слаб. дождь 5/5 300 м
[Ns]
+25.0 +23.0 89 +33 +35 очень
душно
1007.0 1006.5
В 2 10 км слаб. дождь 5/5 300 м
[Ns]
+26.0 +24.0 89 +36 +36 очень
душно
1008.0 1007.5
В 1 12 км в посл. час дождь 9/4 300 м
[Sc Ac lent Ci sp]
+25.3 +24.1 93 +35 +35 очень
душно
1009.1 1008.1 +28.3 12
штиль 0 10 км 2/2 780 м +25.0 +24.0 94 1009.0 1008.5
штиль 0 10 км 2/2 780 м +26.0 +24.0 89 1010.0 1009.5
нст 1 10 км 2/2 300 м +26.0 +24.0 89 +36 +36 очень
душно
1011.0 1010.5
нст 1 10 км 2/2 300 м +25.0 +24.0 94 +34 +34 очень
душно
1011.0 1010.5
нст 1 10 км 2/2 300 м +25.0 +24.0 94 +34 +34 очень
душно
1011.0 1010.5
штиль 0 10 км зарница 9/6 300 м
[Cb cap Ac lent Ci sp]
+25.2 +24.2 94 +35 +35 очень
душно
1010.1 1009.1
нст 1 10 км 2/2 300 м +25.0 +24.0 94 +34 +34 очень
душно
1008.0 1007.5
нст 1 10 км 2/2 300 м +25.0 +24.0 94 +34 +34 очень
душно
1008.0 1007.5
штиль 0 10 км 2/2 300 м +25.0 +24.0 94 1008.0 1007.5
нст 2 8000 м слаб. дождь 5/5 300 м
[Ns]
+25.0 +23.0 89 +33 +33 очень
душно
1008.0 1007.5
З 2 9000 м слаб. дождь 5/5 300 м
[Ns]
+25.0 +24.0 94 +34 +34 очень
душно
1009.0 1008.5
В 1 13 км в посл. час дождь 9/5 300 м
[Cu Sc Ac lent Ci sp]
+24.9 +23.6 94 +34 +35 очень
душно
1010.2 1009.2 +24.3 24 23.8
В 2 10 км 2/2 510 м +26.0 +24.0 89 +36 +39 очень
душно
1010.0 1009.5
штиль 0 10 км 2/2 510 м +28.0 +25.0 84 1011.0 1010.5
ЮЗ 2 10 км 2/2 600 м +30.0 +26.0 79 +45 +57 очень
душно
1011.0 1010.6
нст 2 10 км 2/2 570 м +30.0 +25.0 75 +43 +59 очень
душно
1010.0 1009.6
нст 3 10 км 5/5 510 м +30.0 +25.0 75 +43 +52 очень
душно
1010.0 1009.6
З 2 12 км слаб. ливневой дождь 9/5 500 м
[Cb cap Ac lent Ci sp]
+29.7 +25.2 77 +43 +49 очень
душно
1008.9 1008.0
нст 2 10 км 5/5 510 м +29.0 +26.0 84 +44 +53 очень
душно
1008.0 1007.6
З 3 10 км 5/5 600 м +29.0 +25.0 79 +42 +47 очень
душно
1007.0 1006.6
нст 2 10 км 2/2 600 м +29.0 +26.0 84 +44 +49 очень
душно
1006.0 1005.6
нст 2 10 км 2/2 600 м +29.0 +25.0 79 +42 +44 очень
душно
1006.0 1005.6
нст 2 10 км слаб. дождь 2/2 600 м
[Ns]
+29.0 +25.0 79 +42 +42 очень
душно
1006.0 1005.6
СЗ 1 12 км в посл. час дождь {ливн. дождь} 9/3 750 м
[Sc Ac lent Ci sp]
+28.1 +25.0 84 +40 +40 очень
душно
1007.4 1006.5 +30.6 1
нст 1 10 км 2/2 750 м +27.0 +25.0 89 +39 +39 очень
душно
1008.0 1007.5
нст 1 10 км 2/2 780 м +27.0 +25.0 89 +39 +39 очень
душно
1009.0 1008.5
нст 1 10 км 2/2 780 м +27.0 +24.0 84 +37 +37 очень
душно
1010.0 1009.5
нст 1 10 км слаб. дождь 5/5 750 м
[Ns]
+26.0 +25.0 94 +37 +37 очень
душно
1010.0 1009.5
штиль 0 10 км 2/2 780 м +26.0 +25.0 94 1009.0 1008.5
СВ 1 12 км дымка {дождь} 9/4 300 м
[Sc Ac lent Ci sp]
+25.7 +24.5 94 +37 +37 очень
душно
1009.0 1008.0 0.2
нст 1 10 км 2/2 300 м +26.0 +24.0 89 +36 +36 очень
душно
1008.0 1007.5
нст 1 10 км 2/2 300 м +25.0 +24.0 94 +34 +34 очень
душно
1008.0 1007.5
нст 1 10 км 2/2 300 м +25.0 +24.0 94 +34 +34 очень
душно
1008.0 1007.5
нст 1 10 км 2/2 510 м +25.0 +24.0 94 +34 +34 очень
душно
1008.0 1007.5
нст 1 7000 м дождь 5/5 240 м
[Ns]
+25.0 +24.0 94 +34 +34 очень
душно
1008.0 1007.5
В 2 6000 м гроза, ливневой дождь 9/5 240 м
[Cb cap Ac lent Ci sp]
+24.7 +23.8 95 +34 +34 очень
душно
1009.4 1008.4 +24.7 8 8.4
нст 1 10 км слаб. дождь 5/5 150 м
[Ns]
+25.0 +24.0 94 +34 +36 очень
душно
1010.0 1009.5
В 2 10 км слаб. дождь 5/5 150 м
[Ns]
+26.0 +25.0 94 +37 +42 очень
душно
1011.0 1010.5
нст 1 10 км слаб. дождь 5/5 150 м
[Ns]
+26.0 +25.0 94 +37 +46 очень
душно
1011.0 1010.5
нст 1 10 км 2/2 150 м +27.0 +25.0 89 +39 +57 опасность
солнечного
удара
1010.0 1009.5
нст 1 10 км 2/2 300 м +28.0 +25.0 84 +40 +61 опасность
солнечного
удара
1010.0 1009.5
штиль 0 14 км {гроза, дождь} 9/3 600 м
[Cu med, cong Ac lent Ci sp]
+28.8 +25.5 82 +42 +54 очень
душно
1009.0 1008.1 3
ЮЗ 2 10 км 5/5 600 м +29.0 +25.0 79 +42 +51 очень
душно
1007.0 1006.6
ЮЗ 2 10 км 2/2 510 м +30.0 +25.0 75 +43 +54 очень
душно
1007.0 1006.6
нст 2 10 км 5/5 510 м +30.0 +25.0 75 +43 +47 очень
душно
1006.0 1005.6
Ю 2 10 км 2/2 600 м +28.0 +24.0 79 +39 +41 очень
душно
1006.0 1005.5
штиль 0 10 км 2/2 600 м +28.0 +24.0 79 1007.0 1006.5
штиль 0 12 км 9/1 800 м
[Sc Ac trans Ci sp]
+27.0 +24.0 84 +37 +37 очень
душно
1007.9 1006.9 +30.3
штиль 0 10 км 2/2 780 м +26.0 +24.0 89 1008.0 1007.5
нст 1 10 км 2/2 780 м +26.0 +24.0 89 +36 +36 очень
душно
1010.0 1009.5
нст 1 10 км 2/2 750 м +26.0 +24.0 89 +36 +36 очень
душно
1010.0 1009.5
нст 1 10 км 2/2 750 м +26.0 +24.0 89 +36 +36 очень
душно
1010.0 1009.5
нст 1 10 км 2/2 780 м +25.0 +23.0 89 +33 +33 очень
душно
1010.0 1009.5
СВ 2 12 км 9/3 800 м
[Sc Ac trans Ci fib]
+25.4 +23.1 89 +33 +33 очень
душно
1009.8 1008.8
нст 1 10 км 2/2 780 м +25.0 +23.0 89 +33 +33 очень
душно
1008.0 1007.5
штиль 0 10 км 2/2 780 м +25.0 +23.0 89 1008.0 1007.5
нст 1 10 км 2/2 780 м +24.0 +23.0 94 +32 +32 очень
душно
1008.0 1007.5
СВ 2 10 км 2/2 780 м +25.0 +23.0 89 +33 +33 очень
душно
1008.0 1007.5
нст 1 10 км 2/2 780 м +25.0 +23.0 89 +33 +33 очень
душно
1009.0 1008.5
СВ 2 13 км мгла 9/3 600 м
[Cu Sc Ac trans Ci sp]
+25.4 +23.4 89 +33 +34 очень
душно
1009.3 1008.3 +24.3 3 3.0
нст 1 10 км 2/2 600 м +27.0 +24.0 84 +37 +41 очень
душно
1009.0 1008.5
нст 1 10 км 2/2 600 м +29.0 +25.0 79 +42 +50 очень
душно
1010.0 1009.5
штиль 0 10 км 2/2 600 м +30.0 +25.0 75 1010.0 1009.6
З 2 10 км 2/2 600 м +30.0 +25.0 75 +43 +59 очень
душно
1010.0 1009.6
З 2 10 км 5/5 600 м +30.0 +25.0 75 +43 +54 очень
душно
1010.0 1009.6
З 3 13 км мгла 9/4 600 м
[Cu med, cong Ac trans Ci sp]
+30.7 +25.8 75 +46 +52 очень
душно
1009.1 1008.2
З 3 10 км 2/2 600 м +31.0 +26.0 75 +46 +58 очень
душно
1008.0 1007.6
ЮЗ 2 10 км 2/2 600 м +31.0 +25.0 70 +44 +54 очень
душно
1007.0 1006.6
ЮЗ 3 10 км 2/2 600 м +31.0 +23.0 62 +41 +46 очень
душно
1006.0 1005.6
З 2 10 км 2/2 600 м +31.0 +23.0 62 +41 +43 очень
душно
1006.0 1005.6
нст 1 10 км 2/2 600 м +30.0 +23.0 66 +40 +40 очень
душно
1007.0 1006.6
С 1 12 км мгла 9/1 800 м
[Sc Ac trans Ci sp]
+28.0 +24.4 79 +39 +39 очень
душно
1008.0 1007.1 +31.9
нст 1 10 км 2/2 780 м +28.0 +24.0 79 +39 +39 очень
душно
1009.0 1008.5
нст 2 10 км 2/2 780 м +27.0 +23.0 79 +36 +36 очень
душно
1009.0 1008.5
штиль 0 10 км 2/2 780 м +27.0 +24.0 84 1010.0 1009.5
нст 1 10 км 2/2 780 м +27.0 +24.0 84 +37 +37 очень
душно
1010.0 1009.5
нст 1 10 км 2/2 780 м +26.0 +24.0 89 +36 +36 очень
душно
1010.0 1009.5
С 1 12 км мгла 9/3 800 м
[Sc Ac trans Ci sp]
+26.0 +23.2 85 +35 +35 очень
душно
1009.4 1008.4
нст 1 10 км 2/2 780 м +26.0 +23.0 84 +35 +35 очень
душно
1009.0 1008.5
нст 2 н/о 2/2 780 м +26.0 +23.0 84 +35 +35 очень
душно
1007.0 1006.5
штиль 0 10 км 2/2 780 м +26.0 +24.0 89 1007.0 1006.5
нст 1 10 км 2/2 780 м +26.0 +24.0 89 +36 +36 очень
душно
1008.0 1007.5
нст 1 10 км 2/2 780 м +26.0 +24.0 89 +36 +36 очень
душно
1008.0 1007.5
штиль 0 13 км мгла 9/3 600 м
[Cu Sc Ac lent Ci sp]
+26.4 +24.6 90 +37 +38 очень
душно
1009.1 1008.1 +25.4
нст 1 10 км 2/2 600 м +28.0 +26.0 89 +42 +46 очень
душно
1009.0 1008.5
нст 2 10 км 2/2 600 м +30.0 +25.0 75 +43 +50 очень
душно
1010.0 1009.6
ЮЗ 2 10 км 5/5 600 м +30.0 +25.0 75 +43 +51 очень
душно
1010.0 1009.6
ЮЗ 3 10 км 5/5 600 м +31.0 +26.0 75 +46 +54 очень
душно
1009.0 1008.6
С 2 10 км 5/5 510 м +30.0 +24.0 70 +41 +52 очень
душно
1009.0 1008.6
штиль 0 13 км гроза без осадков 9/5 500 м
[Cb cap Ac lent Ci sp]
+29.3 +24.6 76 +42 +50 очень
душно
1008.5 1007.6
нст 1 10 км 5/5 510 м +30.0 +25.0 75 +43 +54 очень
душно
1007.0 1006.6
нст 1 10 км 2/2 600 м +30.0 +25.0 75 +43 +55 очень
душно
1006.0 1005.6
Ю 2 10 км 2/2 600 м +30.0 +26.0 79 +45 +51 очень
душно
1006.0 1005.6
Ю 2 10 км 2/2 570 м +29.0 +26.0 84 +44 +46 очень
душно
1006.0 1005.6
нст 1 10 км 2/2 510 м +29.0 +26.0 84 +44 +44 очень
душно
1007.0 1006.6
штиль 0 12 км мгла {гроза} 9/3 800 м
[Sc Ac lent Ci sp]
+28.1 +25.2 84 +41 +41 очень
душно
1007.6 1006.7 +31.5
нст 1 10 км 2/2 510 м +27.0 +25.0 89 +39 +39 очень
душно
1008.0 1007.5
нст 1 10 км 2/2 360 м +27.0 +25.0 89 +39 +39 очень
душно
1009.0 1008.5
штиль 0 10 км 2/2 510 м +27.0 +25.0 89 1009.0 1008.5
штиль 0 10 км гроза без осадков 2/2 510 м
[Cb]
+26.0 +24.0 89 1010.0 1009.5
нст 3 10 км 5/5 510 м +28.0 +25.0 84 +40 +40 очень
душно
1009.0 1008.5
Ю 1 12 км в посл. час гроза 9/5 500 м
[Cb cap Ac lent Ci sp]
+26.9 +24.7 89 +39 +39 очень
душно
1008.4 1007.4 3
штиль 0 10 км 2/2 780 м +27.0 +25.0 89 1007.0 1006.5
нст 3 н/о слаб. дождь 5/5 510 м
[Ns]
+26.0 +24.0 89 +36 +36 очень
душно
1007.0 1006.5
СЗ 3 н/о слаб. дождь 5/5 300 м
[Ns]
+25.0 +24.0 94 +34 +34 очень
душно
1007.0 1006.5
нст 2 10 км слаб. дождь 5/5 300 м
[Ns]
+26.0 +24.0 89 +36 +36 очень
душно
1006.0 1005.5
нст 1 10 км слаб. дождь 5/5 300 м
[Ns]
+25.0 +24.0 94 +34 +34 очень
душно
1007.0 1006.5
В 1 7000 м слаб. дождь 9/5 300 м
[Sc Ac lent Cs]
+24.9 +23.7 93 +34 +34 очень
душно
1008.6 1007.6 +24.9 30 30.0
В 2 н/о слаб. дождь 5/5 300 м
[Ns]
+25.0 +23.0 89 +33 +35 очень
душно
1008.0 1007.5
В 2 н/о слаб. дождь 5/5 300 м
[Ns]
+25.0 +24.0 94 +34 +39 очень
душно
1009.0 1008.5
В 2 10 км слаб. дождь 5/5 300 м
[Ns]
+26.0 +25.0 94 +37 +44 очень
душно
1009.0 1008.5
штиль 0 10 км слаб. дождь 5/5 360 м
[Ns]
+27.0 +25.0 89 1008.0 1007.5
нст 1 н/о слаб. дождь 5/5 300 м
[Ns]
+27.0 +25.0 89 +39 +51 опасность
солнечного
удара
1008.0 1007.5
З 1 12 км в посл. час дождь 9/4 600 м
[Cu Sc Ac lent Ci sp]
+27.4 +25.2 88 +40 +49 очень
душно
1006.9 1006.0 3
штиль 0 10 км 2/2 600 м +28.0 +25.0 84 1005.0 1004.6
нст 2 10 км 5/5 600 м +29.0 +25.0 79 +42 +48 очень
душно
1005.0 1004.6
З 2 10 км 2/2 510 м +29.0 +26.0 84 +44 +49 очень
душно
1005.0 1004.6
нст 1 10 км 2/2 510 м +29.0 +26.0 84 +44 +46 очень
душно
1005.0 1004.6
нст 1 10 км 2/2 510 м +28.0 +25.0 84 +40 +41 очень
душно
1005.0 1004.6
штиль 0 12 км зарница 9/4 500 м
[Cb cap Ac lent Ci sp]
+27.8 +25.1 84 +40 +40 очень
душно
1006.6 1005.7 +29.3
нст 1 10 км слаб. дождь 5/5 510 м
[Ns]
+28.0 +26.0 89 +42 +42 очень
душно
1007.0 1006.6
нст 1 н/о слаб. дождь 5/5 300 м
[Ns]
+27.0 +26.0 94 +40 +40 очень
душно
1007.0 1006.5
нст 1 10 км слаб. дождь 5/5 300 м
[Ns]
+26.0 +25.0 94 +37 +37 очень
душно
1008.0 1007.5
С 2 10 км гроза без осадков 2/2 510 м
[Cb]
+26.0 +25.0 94 +37 +37 очень
душно
1008.0 1007.5
нст 2 10 км 2/2 300 м +26.0 +25.0 94 +37 +37 очень
душно
1008.0 1007.5
СЗ 3 7000 м гроза, ливневой дождь 9/6 240 м
[Cb cap Ac lent Cs]
+25.4 +23.8 94 +34 +34 очень
душно
1007.8 1006.8 16
нст 1 10 км слаб. дождь 5/5 300 м
[Ns]
+25.0 +24.0 94 +34 +34 очень
душно
1006.0 1005.5
нст 1 10 км гроза без осадков 2/2 510 м
[Cb]
+25.0 +25.0 100 +36 +36 очень
душно
1006.0 1005.5
нст 1 10 км 2/2 510 м +26.0 +25.0 94 +37 +37 очень
душно
1006.0 1005.5
нст 2 10 км 2/2 780 м +27.0 +25.0 89 +39 +39 очень
душно
1005.0 1004.5
СЗ 3 10 км 2/2 510 м +28.0 +25.0 84 +40 +40 очень
душно
1006.0 1005.6
СЗ 2 13 км гроза без осадков {дождь} 9/5 500 м
[Cb cap Ac lent Ci sp]
+28.0 +24.9 83 +40 +40 очень
душно
1006.5 1005.6 +24.7 20 20.0
нст 1 10 км 5/5 510 м +28.0 +26.0 89 +42 +44 очень
душно
1007.0 1006.6
нст 2 10 км 5/5 510 м +30.0 +25.0 75 +43 +48 очень
душно
1008.0 1007.6
З 3 10 км 2/2 510 м +31.0 +25.0 70 +44 +54 очень
душно
1008.0 1007.6
ЮЗ 3 10 км 5/5 510 м +28.0 +24.0 79 +39 +47 очень
душно
1008.0 1007.5
нст 2 10 км слаб. ливневой дождь 5/5 510 м
[Cb]
+27.0 +25.0 89 +39 +50 очень
душно
1007.0 1006.5
З 2 11 км слаб. дождь {ливн. дождь} 9/5 240 м
[Sc Ac lent Cs]
+26.9 +24.2 84 +37 +48 очень
душно
1007.3 1006.3 2
нст 1 10 км 2/2 300 м +28.0 +25.0 84 +40 +57 опасность
солнечного
удара
1006.0 1005.6
нст 1 10 км 5/5 600 м +29.0 +25.0 79 +42 +49 очень
душно
1005.0 1004.6
нст 2 10 км 5/5 510 м +30.0 +26.0 79 +45 +49 очень
душно
1005.0 1004.6
нст 2 10 км 2/2 600 м +29.0 +24.0 74 +40 +42 очень
душно
1005.0 1004.6
нст 2 10 км 2/2 510 м +28.0 +25.0 84 +40 +41 очень
душно
1006.0 1005.6
штиль 0 12 км {дождь} 9/3 750 м
[Sc Ac lent Ci sp]
+27.7 +25.0 84 +40 +40 очень
душно
1007.5 1006.6 +31.4 0.0
штиль 0 10 км 2/2 780 м +27.0 +25.0 89 1008.0 1007.5
СВ 2 10 км 2/2 780 м +27.0 +25.0 89 +39 +39 очень
душно
1008.0 1007.5
нст 1 10 км 2/2 300 м +27.0 +25.0 89 +39 +39 очень
душно
1009.0 1008.5
нст 1 10 км 2/2 780 м +26.0 +25.0 94 +37 +37 очень
душно
1009.0 1008.5
нст 1 10 км 2/2 510 м +26.0 +25.0 94 +37 +37 очень
душно
1009.0 1008.5
Местоположение метеостанции Лангкави (Малайзия): широта 6.33 долгота 99.73 высота над уровнем моря 7 м.
В архиве по умолчанию представлена погода в Лангкави за последнюю неделю. Архивные данные за месяц целиком и за предыдущие месяцы, начиная с января 2011 года, Вы можете получить, выбрав интересующий диапазон дат из раскрывающегося списка и нажав кнопку "Найти!".
*Определитесь, кто Вы:
Внимание! Время в таблицах - всемирное. Для получения местного времени необходимо прибавить поправку, которая равна 7 ч.
Смотрите также архив погоды в соседних городах и на ближайших метеорологических станциях:
Партнеры нашего сайта:      
Пояснения к столбцам:
  • Ветер - указаны скорость ветра в м/с - средняя за 10 мин, порывы в срок и между сроками (в фигурных скобках) и направление, откуда дует ветер: С - северный,
  • СВ - северо-восточный, В - восточный, ЮВ - юго-восточный, Ю - южный, ЮЗ - юго-западный, З - западный, СЗ - северо-западный.
  • Видимость - горизонтальная дальность видимости в метрах или километрах. При видимости от 1 до 10 км при отсутствии осадков обычно наблюдается дымка, при ухудшении видимости до 1 км и менее - туман. В сухую погоду видимость может ухудшаться дымом, пылью или мглою.
  • Явления - указаны атмосферные явления, наблюдавшиеся в срок или в последний час перед сроком; фигурными скобками обозначены явления, наблюдавшиеся между сроками (за 1-3 часа до срока); квадратными скобками обозначены град или гололедные отложения с указанием их диаметра в мм.
  • Облачность - указаны через наклонную черту общая и нижняя облачность в баллах и высота нижней границы облаков в метрах; квадратными скобками обозначены формы облаков: Ci - перистые, Cs - перисто-слоистые, Cc - перисто-кучевые, Ac - высококучевые, As - высокослоистые, Sc - слоисто-кучевые, Ns - слоисто-дождевые, Cu - кучевые, Cb - кучево-дождевые. Подробнее классификацию облаков см. в Атласе облаков (PDF).
  • T - Температура воздуха - температура, измеренная на высоте 2 м над землей.
  • Td - Температура точки росы - температура, при понижении до которой содержащийся в воздухе водяной пар достигнет насыщения.
  • f - Относительная влажность воздуха - влажноcть воздуха, измеренная на высоте 2 м над землей.
  • Te - Эффективная температура - температура, которую ощущает одетый по сезону человек в тени. Характеристика душности погоды. При расчете учитывается влияние влажности воздуха и скорости ветра на теплоощущения человека.
  • Tes - Эффективная температура на солнце - температура, которую ощущает человек, с поправкой на солнечный нагрев. Характеристика знойности погоды. Зависит от высоты солнца над горизонтом, облачности и скорости ветра. Ночью, в пасмурную погоду, а также при ветре 12 м/с и более поправка равна нулю.
  • P - Атмосферное давление - приведенное к уровню моря атмосферное давление.
  • Po - Атмосферное давление - измеренное на уровне метеостанции атмосферное давление.
  • Tmin - Минимальная температура - минимум температуры воздуха на высоте 2 м над землей.
  • Tmax - Максимальная температура - максимум температуры воздуха на высоте 2 м над землей.
  • R - Количество осадков - Количество выпавших осадков за период времени, мм. При наведении курсора мыши на число - период времени, за который выпало указанное количество осадков.
  • R24 - Количество осадков - Количество выпавших осадков за 24 часа, мм.
  • S - Снежный покров - Высота снежного покрова, см. При наведении курсора мыши на число - состояние снежного покрова и степень покрытия местности в баллах.